{"data":{"norad_id":60183,"intl_designator":"2024-124A","name":"STARLINK-11168 [DTC]","alt_names":[],"object_type":"PAYLOAD","status":"ACTIVE","operator":null,"country":"US","launch_date":"2024-07-03","launch_site_code":"AFETR","launch_vehicle":null,"mission":null,"orbit_class":"UNKNOWN","rcs_meters":null,"size_class":null,"mass_kg":null,"dimensions":null,"purposes":["comms"],"wikipedia_slug":null,"has_3d_model":false,"image_url":null,"decayed_at":null,"tle_current":{"epoch":"2026-05-25T03:31:14.772000Z","epoch_age_seconds":69180,"freshness":"FRESH","line1":"1 60183U 24124A   26145.14669875  .00000097  00000+0  56605-5 0  9997","line2":"2 60183  53.1587 144.2698 0001023  98.9751 261.1383 15.69692317109731","mean_motion":15.69692317,"eccentricity":0.0001023,"inclination_deg":53.1587,"raan_deg":144.2698,"arg_perigee_deg":98.9751,"mean_anomaly_deg":261.1383,"bstar":5.6605e-6,"rev_number":10973,"period_min":91.737723654794,"perigee_km":359.08806423383,"apogee_km":360.46664151042,"semimajor_km":6737.9143528721,"source":"CELESTRAK","updated_at":"2026-05-25T13:38:19.193049Z"}}}